RH
85 97 99 100 100 100 88 79 99 55 32 48 56 82 54 34 32 32 34 30 48 50 34 34 36 39 40 42 43 50 66 70 64 51 74 91 80 73 70 75 72 84 79 68
83 89 89 100 100 97 93 98 94 53 56 95 94 56 47 41 41 39 38 39 40 30 31 38 33 33 39 42 44 58 62 78 65 62 69 71 69 78 74 81 84 78 70 73
88 79 85 100 99 100 96 98 98 89 64 66 75 70 57 46 40 36 38 36 33 31 33 34 52 41 38 40 35 41 38 79 77 70 79 77 69 72 83 73 79 72 60 54
79 86 90 100 100 100 95 99 98 83 90 87 86 78 97 68 59 44 42 41 41 45 46 50 38 46 44 42 36 47 54 93 71 52 57 76 66 68 73 78 65 66 54 64
82 86 88 100 100 100 99 99 98 98 94 80 90 96 97 94 75 56 50 66 58 68 81 84 91 72 81 91 53 63 74 95 84 86 61 64 72 61 82 74 69 70 70 78
83 83 90 95 100 99 99 100 98 96 96 98 97 94 90 95 95 97 97 73 92 95 94 92 86 84 82 81 73 72 81 94 95 93 71 81 87 75 75 87 96 84 92 79
84 85 88 97 99 91 88 93 93 100 99 97 97 98 97 97 98 96 96 96 96 97 94 95 94 92 80 89 95 93 95 95 94 96 94 97 74 90 76 81 89 100 100 100
92 82 79 86 100 97 97 96 97 99 96 93 91 96 96 96 96 95 94 95 97 98 91 92 92 66 58 67 66 82 95 95 95 96 93 80 83 86 81 75 73 97 96 97
99 85 80 99 100 100 98 100 94 95 96 96 95 94 96 96 95 94 94 95 97 84 90 90 94 94 70 71 71 66 73 85 90 96 98 97 75 86 93 81 91 93 98 100
99 100 100 100 99 100 92 97 97 90 95 95 95 95 95 95 95 94 93 93 77 49 80 90 90 92 68 68 75 76 74 89 96 98 95 88 84 85 82 83 68 91 94 92
100 100 99 99 99 96 81 98 96 78 95 95 94 95 95 94 90 92 87 76 71 67 92 90 87 87 85 78 85 83 81 86 93 91 98 92 77 86 89 72 96 86 84 85
98 99 100 99 99 99 90 93 97 85 89 94 89 84 95 96 96 94 92 92 88 89 91 91 84 84 90 92 90 87 82 84 85 77 78 80 87 77 79 94 87 87 94 86
98 99 99 100 100 100 82 97 94 76 86 90 82 85 64 74 85 86 89 86 92 91 94 96 97 96 95 94 91 94 95 97 95 80 75 86 89 85 85 85 88 86 85 83
99 99 98 96 93 90 83 78 60 58 62 84 92 57 60 57 63 70 76 81 77 78 86 94 96 94 84 98 93 95 92 92 94 93 81 73 74 82 79 75 76 75 69 61
83 80 76 70 61 42 37 44 49 47 66 89 73 48 45 55 55 55 57 64 85 92 92 95 100 94 89 97 93 100 95 87 87 75 63 62 58 69 80 84 62 58 66 68
77 78 80 79 57 37 30 71 40 30 32 79 76 45 44 45 52 60 64 63 82 95 94 100 99 94 94 99 100 78 87 96 77 67 65 78 61 75 66 71 71 66 72 73
76 71 59 41 35 32 82 81 63 56 44 79 83 68 46 48 58 64 74 64 93 92 99 98 100 98 90 100 100 58 73 77 80 84 86 78 70 71 57 71 68 68 72 76
58 50 41 30 19 19 46 48 28 24 42 56 89 79 61 52 70 86 73 93 90 88 99 97 94 94 98 100 78 76 76 75 82 75 78 66 59 68 69 65 75 86 86 81
38 17 8 8 26 62 57 62 18 19 41 90 90 98 98 60 68 88 86 92 92 84 95 93 81 94 100 69 67 68 63 66 57 61 75 78 82 72 74 80 84 91 88 82
7 6 15 56 44 62 25 21 57 68 68 83 96 78 96 81 76 92 86 96 100 100 95 82 94 93 80 76 71 70 67 66 71 95 90 81 87 83 82 82 78 81 83 83
9 25 49 29 30 26 56 85 84 85 96 88 95 92 98 72 94 100 99 97 98 91 89 82 91 91 79 68 72 69 64 67 75 81 86 87 87 90 89 86 82 84 88 88
22 20 25 24 51 69 65 91 80 94 100 97 100 95 91 84 87 95 93 95 89 74 88 85 80 76 66 66 63 74 85 94 92 92 92 92 92 92 92 91 90 89 90 92
16 30 69 69 81 70 86 90 84 92 97 98 98 98 99 85 78 92 94 76 79 84 95 73 72 72 66 70 91 87 81 86 92 90 89 92 93 93 94 92 91 94 95 94
78 76 85 86 93 100 100 100 99 88 100 97 100 100 99 95 89 99 68 80 89 88 83 72 82 69 90 87 84 91 89 91 92 91 92 92 93 92 93 94 95 95 94 92
86 82 100 100 96 96 96 95 97 90 90 98 94 95 93 95 82 91 90 86 95 85 94 84 81 89 88 88 88 90 89 89 90 91 92 91 92 93 92 90 94 96 96 96
83 91 90 88 94 95 97 98 98 83 98 96 93 98 89 92 100 91 96 100 96 92 92 87 87 89 88 91 89 90 92 92 91 91 94 93 92 92 92 93 92 89 95 96
82 94 87 96 98 98 98 97 94 78 95 98 97 88 100 96 94 96 96 97 92 86 82 79 90 93 92 90 91 90 92 92 91 92 86 85 86 90 93 90 84 93 96 97
Wind_Speed
27 28 28 30 31 26 20 9 2 6 10 3 2 3 7 3 4 1 4 2 8 9 10 7 6 9 5 7 8 8 5 4 3 9 1 2 1 4 5 4 5 1 1 8
31 29 25 32 38 38 16 4 2 1 1 4 4 4 5 5 6 6 7 7 7 4 8 4 8 5 0 6 7 8 7 1 1 5 3 3 2 3 3 4 2 8 4 6
31 30 31 31 44 42 18 3 3 2 1 2 4 5 5 5 3 3 4 2 4 3 5 4 3 3 3 4 2 7 6 3 7 10 4 4 2 4 4 6 7 7 19 14
33 27 30 33 44 46 21 3 4 5 5 6 7 7 5 6 7 4 6 3 6 6 5 2 5 4 2 1 3 2 3 5 5 8 4 4 6 7 9 10 11 13 22 15
29 29 32 32 46 46 13 5 4 1 3 3 13 9 7 11 1 7 6 5 4 4 7 7 4 4 4 4 2 4 1 3 1 4 6 8 16 14 9 16 18 16 17 20
27 28 29 23 48 40 6 5 3 2 6 5 6 6 6 6 11 1 1 3 4 6 3 3 5 4 4 3 5 6 4 3 2 4 2 6 11 9 13 1 1 4 7 5
27 28 29 31 50 56 23 10 7 3 4 4 2 2 4 7 6 4 4 4 4 2 6 4 4 3 3 2 3 3 4 4 3 2 2 5 3 3 1 3 4 3 3 3
28 28 27 29 42 59 20 12 3 3 4 2 5 6 7 8 8 4 4 4 3 3 4 2 2 1 1 2 5 1 3 3 2 3 5 6 3 2 1 3 6 5 4 3
26 26 24 21 39 33 19 19 12 5 7 4 4 2 3 3 3 3 3 3 6 2 2 2 3 3 2 2 2 3 3 3 6 2 3 6 4 2 4 3 5 3 4 4
19 14 10 17 38 31 26 14 15 13 5 6 5 4 3 3 4 3 3 2 2 3 2 2 3 2 1 3 3 2 1 2 3 4 6 5 3 3 3 4 5 3 5 6
34 35 32 28 26 27 21 18 6 12 4 9 14 7 5 4 4 2 1 2 2 1 1 1 1 1 1 2 0 2 3 3 3 2 1 8 5 2 4 4 3 4 5 7
36 32 27 22 20 20 20 18 30 35 13 8 20 23 21 9 4 1 4 2 2 1 2 1 1 1 2 2 2 2 2 3 2 6 4 3 5 5 4 5 6 5 4 8
33 31 28 24 20 14 33 37 28 27 8 10 9 8 22 22 15 2 2 1 2 2 1 2 2 4 1 2 3 1 2 2 1 3 3 5 5 5 5 6 8 6 8 9
37 36 36 37 36 33 31 20 16 16 11 5 3 17 18 22 20 21 13 7 7 5 3 3 2 2 1 1 1 1 2 3 3 6 8 8 6 5 7 8 10 9 15 17
37 36 36 36 36 37 39 39 25 11 8 4 4 5 21 21 26 24 22 17 5 3 3 3 1 1 2 2 2 2 4 6 4 5 7 6 11 7 4 7 13 16 15 18
29 25 19 12 9 9 7 4 25 19 14 5 3 3 13 21 18 22 20 13 7 3 3 1 1 2 3 2 2 6 6 4 5 6 7 9 12 9 13 12 17 24 21 24
32 33 31 27 23 24 14 4 6 5 8 4 4 3 6 16 10 7 6 13 3 3 2 2 2 1 3 2 2 7 8 11 10 6 3 10 8 10 18 18 25 28 28 29
29 31 32 31 32 28 34 34 10 9 14 9 3 3 3 16 5 4 9 3 3 4 2 1 2 2 1 2 9 7 7 7 8 14 16 21 20 18 20 25 21 14 15 21
20 20 14 14 17 10 8 8 24 32 14 4 4 3 2 11 4 2 4 2 3 1 2 1 1 1 3 8 7 6 7 6 10 11 8 10 13 18 18 15 16 14 16 18
7 5 9 4 7 10 5 5 6 9 10 5 3 0 3 3 3 4 3 2 1 2 2 1 1 3 6 9 12 10 12 12 11 12 16 15 17 17 18 18 20 19 20 24
6 7 3 3 6 5 7 5 6 4 5 4 2 2 1 4 2 2 1 1 2 3 3 2 3 3 5 7 7 11 18 19 20 22 25 26 21 19 18 18 24 25 26 24
11 15 9 6 10 5 8 4 4 6 1 4 2 3 1 3 2 3 3 1 3 2 2 3 3 4 7 7 11 12 18 19 21 24 24 27 27 28 27 26 25 27 28 27
8 9 6 5 6 15 8 7 4 4 4 3 3 3 2 3 3 2 3 4 3 1 3 3 5 4 7 10 13 17 25 24 24 25 27 28 28 29 27 26 28 28 26 26
5 6 10 5 6 4 1 3 3 3 1 4 1 2 1 2 4 1 3 2 2 3 3 5 3 13 17 18 17 16 19 23 23 24 26 25 25 25 26 25 26 25 23 25
5 6 6 5 2 2 3 3 2 2 2 2 2 2 1 2 3 1 3 4 4 4 4 7 12 20 19 19 19 19 18 21 21 26 24 25 26 23 23 24 24 24 24 22
5 8 4 1 2 3 3 2 2 3 1 0 1 1 4 3 1 4 1 0 4 4 6 14 16 20 20 18 21 26 27 26 26 25 24 25 25 24 26 28 25 24 23 22
6 3 1 1 1 3 2 1 2 7 1 2 2 5 3 3 3 3 3 3 7 14 15 14 17 18 19 27 28 28 27 25 27 28 28 28 29 27 23 16 25 25 23 19
Wind_Direction
251 251 253 246 227 198 175 161 197 164 169 123 167 188 197 184 197 136 234 238 220 194 190 208 223 220 216 168 155 167 187 139 217 216 244 196 182 203 162 174 206 228 45 270
257 246 240 246 200 208 159 171 100 68 242 172 205 249 244 208 169 202 180 231 216 185 191 232 201 192 121 167 161 163 183 194 324 294 358 12 192 211 135 101 83 204 196 254
259 255 248 235 207 209 181 137 140 359 40 266 194 180 226 223 211 214 184 208 122 161 222 263 228 148 186 186 162 150 137 171 195 248 122 125 217 233 215 198 225 241 237 259
259 256 253 235 213 205 186 199 191 166 183 229 210 175 194 198 209 226 177 230 200 176 202 249 205 148 100 37 241 117 117 237 215 259 228 191 231 218 207 212 228 229 265 249
263 256 248 235 213 198 195 161 144 208 138 124 195 194 204 193 172 166 205 206 188 169 206 191 187 126 175 192 214 141 188 250 93 276 241 247 263 252 217 225 242 254 263 273
267 261 254 239 200 180 158 149 137 110 148 158 158 194 196 210 138 162 93 254 141 194 173 106 81 70 119 125 146 171 164 153 118 258 56 346 284 239 241 237 232 182 238 268
266 262 256 249 206 213 199 171 141 140 165 162 194 172 184 152 173 129 52 68 140 75 106 81 43 7 272 199 218 175 158 160 187 254 70 245 286 294 319 199 224 214 275 246
267 262 260 256 217 205 187 148 115 145 112 353 53 42 102 67 57 68 71 44 21 96 74 89 82 189 5 65 47 245 208 162 244 245 209 313 354 280 111 109 281 203 191 253
270 266 257 249 210 183 149 112 110 92 112 17 308 317 39 109 102 79 67 29 9 6 73 107 192 207 218 251 340 14 56 44 204 124 229 251 224 229 163 110 277 200 171 222
246 240 230 158 164 171 159 76 95 86 93 7 352 42 9 349 62 85 82 36 29 354 119 167 186 219 330 229 193 175 103 41 207 236 259 291 193 153 113 84 287 198 189 226
108 105 105 105 130 138 146 61 95 106 95 44 42 31 24 357 11 100 136 133 356 65 122 214 160 194 226 88 294 202 173 157 213 84 28 275 166 89 175 212 250 219 229 242
92 95 103 103 106 121 113 81 85 93 87 117 74 55 43 35 1 338 38 63 64 93 101 80 125 140 38 158 246 317 268 186 198 187 223 245 233 213 235 182 219 240 222 246
89 90 95 99 106 116 122 107 104 90 100 67 48 9 16 43 35 30 104 84 123 60 164 148 146 102 158 151 251 328 318 161 197 0 285 244 244 249 235 224 235 240 235 253
90 91 93 94 95 97 101 94 99 89 101 89 21 41 38 31 51 59 67 92 79 85 47 73 74 99 342 195 162 195 201 128 186 267 285 299 280 234 246 258 250 258 261 265
93 95 96 98 99 97 87 72 59 84 106 121 150 46 25 35 45 53 57 61 57 37 48 44 82 50 73 10 68 270 186 187 160 236 233 217 272 250 226 243 269 274 273 276
91 93 92 93 94 90 72 65 40 59 96 103 86 128 20 18 34 38 37 36 47 71 92 139 339 263 93 97 217 259 233 247 197 230 221 208 264 276 256 257 270 271 267 267
90 86 81 78 77 72 57 72 334 27 61 88 108 74 23 1 23 27 17 35 53 81 115 58 126 351 80 98 208 248 236 232 243 251 44 290 244 262 271 248 262 274 277 273
93 91 87 83 83 76 51 38 66 74 86 56 77 48 43 9 12 356 6 14 22 18 144 25 82 343 74 272 246 267 264 261 276 262 229 246 271 293 282 278 274 268 268 272
92 90 78 69 39 43 14 13 47 60 63 94 63 41 319 349 16 15 349 14 45 260 60 335 78 272 236 228 236 252 247 221 265 276 266 261 254 267 274 273 271 262 270 273
31 24 35 41 19 341 343 1 24 27 25 41 72 166 347 9 356 352 8 9 46 36 276 327 109 262 264 250 237 248 263 262 268 280 287 288 282 285 286 281 279 274 274 276
45 51 70 41 16 39 39 48 42 354 36 22 332 94 319 356 47 300 72 230 325 44 287 80 312 280 250 255 253 256 257 260 263 262 266 271 274 279 281 281 276 273 274 276
75 106 95 39 28 35 70 25 13 41 57 338 7 317 262 307 80 64 336 92 25 268 300 53 285 252 253 273 274 281 277 277 284 281 280 280 279 279 280 283 284 282 280 281
66 54 50 24 324 41 48 356 353 16 349 356 336 321 336 338 44 47 48 47 246 296 39 247 236 275 280 284 309 315 310 303 298 295 293 291 288 288 284 284 284 284 281 279
59 50 30 61 13 44 162 194 221 262 260 314 274 287 2 305 15 152 46 235 50 6 343 243 269 311 319 319 316 313 312 311 308 306 304 299 297 295 294 288 285 285 281 282
65 49 48 49 227 250 237 241 283 272 287 359 354 345 45 332 24 30 303 347 319 221 257 298 313 316 315 316 317 315 315 315 314 314 313 311 310 308 305 303 297 293 288 285
69 48 59 344 58 328 340 310 285 280 284 105 71 20 29 6 2 10 252 344 256 279 296 308 310 311 312 313 315 315 315 317 318 318 320 321 321 317 312 308 302 299 293 286
54 13 14 99 157 226 269 278 281 321 39 23 79 43 262 298 330 304 203 239 285 305 304 307 308 314 318 317 318 323 326 330 332 332 330 326 319 316 314 315 316 314 311 304